OpenBCM V1.08-5-g2f4a (Linux)

Packet Radio Mailbox

IZ3LSV

[San Dona' di P. JN]

 Login: GUEST





  
CX2SA  > KEPS     27.09.24 01:30l 396 Lines 18918 Bytes #94 (0) @ AMSAT
BID : ORB24271.1
Read: GUEST
Subj: 2Line Orbital Elements 24271.AMSAT
Path: IZ3LSV<I0OJJ<IR0AAB<PD0LPM<PI8ZTM<OZ5BBS<CX2SA
Sent: 240927/0024Z @:CX2SA.SAL.URY.SOAM #:44090 [Salto] FBB7.00e $:ORB24271.1
From: CX2SA@CX2SA.SAL.URY.SOAM
To  : KEPS@AMSAT


QST de W1STR

AMSAT Orbital Elements for Amateur Satellites in TLE Format
>From Orbital Analysis Office
New England Sci-Tech STEM Education Center
Natick, MA September 27, 2024
To all radio amateurs


These element sets describe the orbits of various satellites
in use by the amateur radio community. For details see:
www.amsat.org/keplerian-elements-formats/

A daily update of element sets is available at:
www.amsat.org/tle/daily-bulletin.txt
or without bulletin text:
www.amsat.org/tle/dailytle.txt


AO-07
1 07530U 74089B   24269.92326306 -.00000025  00000-0  13244-3 0  9992
2 07530 101.9871 265.5409 0011871 252.1273 121.5726 12.53679833281906
UO-11
1 14781U 84021B   24270.83042318  .00004125  00000-0  46084-3 0  9997
2 14781  97.7175 237.1565 0009922  99.0955 261.1385 14.87463575184590
AO-27
1 22825U 93061C   24270.60567513  .00000397  00000-0  16942-3 0  9990
2 22825  98.7777 324.3898 0009230 137.3987 222.7913 14.30591023617384
FO-29
1 24278U 96046B   24270.19231240  .00000054  00000-0  94606-4 0  9993
2 24278  98.5803 191.6048 0348971 286.7175  69.5944 13.53211999388341
NOAA-15
1 25338U 98030A   24270.79052722  .00000533  00000-0  23779-3 0  9992
2 25338  98.5635 295.7768 0010827  33.7912 326.3956 14.26720337371927
GO-32
1 25397U 98043D   24269.63868370  .00000363  00000-0  17781-3 0  9993
2 25397  98.9351 237.9213 0000772 170.3750 189.7443 14.24130769361710
ISS
1 25544U 98067A   24270.82919909  .00030039  00000-0  53678-3 0  9999
2 25544  51.6366 171.9406 0007236  35.0669 325.0795 15.49740538474310
NO-44
1 26931U 01043C   24269.75951412  .00000710  00000-0  29875-3 0  9998
2 26931  67.0499  71.7013 0007694 265.9537  94.0686 14.31386779200341
SO-50
1 27607U 02058C   24270.40034648  .00004482  00000-0  60906-3 0  9993
2 27607  64.5538 270.2867 0027325  56.5046 303.8664 14.79735373171505
CO-55
1 27844U 03031E   24270.73807645  .00001048  00000-0  48001-3 0  9996
2 27844  98.6804 276.3777 0009142 203.3437 156.7328 14.23487079102267
CO-57
1 27848U 03031J   24270.50216547  .00000869  00000-0  40577-3 0  9990
2 27848  98.6834 276.3305 0008740 221.7693 138.2819 14.22896045101997
RS-22
1 27939U 03042A   24270.82797729  .00004024  00000-0  66823-3 0  9993
2 27939  98.3035  68.7572 0012784  99.2921   7.7876 14.70683199123211
NOAA-18
1 28654U 05018A   24270.80156812  .00000553  00000-0  31808-3 0  9991
2 28654  98.8676 346.8967 0015098 133.2245 227.0191 14.13341034997615
CO-58
1 28895U 05043F   24270.17834124  .00005784  00000-0  10008-2 0  9994
2 28895  98.2153  46.2853 0015766  41.5615 318.6785 14.68650111  9502
CO-65
1 32785U 08021C   24270.17449286  .00013853  00000-0  11531-2 0  9995
2 32785  97.7648 234.8373 0009975   2.2044 357.9221 14.98744116890663
AAUSAT2
1 32788U 08021F   24269.84545770  .00060238  00000-0  23699-2 0  9992
2 32788  97.6017 250.9161 0006936 135.1598 225.0201 15.25398469893622
CO-66
1 32791U 08021J   24269.77410602  .00022467  00000-0  14891-2 0  9999
2 32791  97.7016 240.6481 0004328  11.0430 349.0892 15.07288525891731
RS-30
1 32953U 08025A   24270.79886904  .00000056  00000-0  33051-3 0  9999
2 32953  82.5074  26.2720 0018871 241.1394 118.7792 12.43148844741756
PRISM
1 33493U 09002B   24270.63618024  .00055292  00000-0  20283-2 0  9998
2 33493  98.1923 327.5077 0009969 249.9990 110.0174 15.27725517854498
NOAA-19
1 33591U 09005A   24270.83833421  .00000463  00000-0  27207-3 0  9996
2 33591  99.0364 327.6661 0013798  10.1554 349.9894 14.13129349805982
SRMSAT
1 37841U 11058D   24270.67647426  .00000743  00000-0  26094-3 0  9993
2 37841  19.9715 262.9074 0011931 130.1247  26.7628 14.11216842669136
RS-40
1 38735U 12041C   24270.14331421  .00000044  00000-0  24857-3 0  9995
2 38735  82.4709 106.9451 0017544   1.5850 358.5282 12.42616444551800
ZACUBE-1
1 39417U 13066B   24270.11536345  .00010696  00000-0  10576-2 0  9996
2 39417  97.7442 223.9880 0048439 183.4179 176.6716 14.91189617586619
Delfi-N3xt
1 39428U 13066N   24270.52627227  .00015248  00000-0  18279-2 0  9999
2 39428  97.8317 186.3202 0098946 118.6846 242.4357 14.80657935581251
GOMX-1
1 39430U 13066Q   24270.57207119  .00006000  00000-0  98017-3 0  9996
2 39430  97.7153 138.7982 0136351 290.6114  68.0511 14.65184381577880
LO-74
1 39440U 13066AA  24270.78325461  .00011771  00000-0  13274-2 0  9993
2 39440  97.8181 212.3890 0065689 303.0322  56.4593 14.85160887584601
AO-73
1 39444U 13066AE  24270.39936870  .00014924  00000-0  13518-2 0  9990
2 39444  97.7294 227.6881 0046492 160.9127 199.3849 14.94631878585809
DTUSAT-2
1 40030U 14033W   24270.11530700  .00016031  00000-0  12618-2 0  9991
2 40030  98.0173 225.4463 0009980 181.9606 178.1579 15.00868229558333
EO-80
1 40032U 14033Y   24270.41494640  .00016918  00000-0  13293-2 0  9992
2 40032  98.0129 225.7247 0010417 136.5601 223.6444 15.00916886558360
XW-2C
1 40906U 15049H   24270.87238335  .00071850  00000-0  11430-2 0  9994
2 40906  97.4720 290.9739 0003468 294.2229  65.8661 15.53049406500194
XW-2D
1 40907U 15049J   24270.84190818  .00172178  00000-0  14500-2 0  9991
2 40907  97.4619 295.0339 0002281 218.3563 141.7536 15.69303089500523
LILACSAT-2
1 40908U 15049K   24270.84986406  .00019531  00000-0  68477-3 0  9994
2 40908  97.5252 280.4965 0011300   4.5265 355.6075 15.29433498499016
XW-2B
1 40911U 15049N   24270.87760736  .00157001  00000-0  14293-2 0  9998
2 40911  97.4603 294.9544 0001968 231.4517 128.6568 15.67433116500389
IO-86
1 40931U 15052B   24270.29994034  .00002074  00000-0  19195-3 0  9996
2 40931   5.9998 350.0993 0012711  76.7416 283.4129 14.78150863486551
ChubuSat-2
1 41338U 16012B   24269.81542177  .00012091  00000-0  71467-3 0  9998
2 41338  31.0009 102.3183 0009915 165.3219 194.7708 15.10224717472811
ChubuSat-3
1 41339U 16012C   24270.86124818  .00011177  00000-0  67437-3 0  9990
2 41339  31.0071  94.7713 0010095 180.1975 179.8660 15.09459993472948
Horyu-4
1 41340U 16012D   24269.66038085  .00028966  00000-0  12744-2 0  9992
2 41340  31.0025  38.9587 0007176 281.6981  78.2855 15.20680341473437
Lapan A3
1 41603U 16040E   24270.82795207  .00007663  00000-0  29547-3 0  9992
2 41603  97.1434 280.0217 0013904  99.5409 260.7402 15.26490371458722
Pratham
1 41783U 16059A   24270.00493206  .00002257  00000-0  42328-3 0  9991
2 41783  97.8352 284.6249 0033680  62.1619 298.2991 14.65324099427308
CAS-2T
1 41847U 16066G   24269.74333368  .00003639  00000-0  53707-3 0  9999
2 41847  98.4513 340.2938 0351085 234.2854 122.5201 14.41836504413989
CAS-4B
1 42759U 17034B   24270.64789877  .00039230  00000-0  11671-2 0  9998
2 42759  43.0172  10.9981 0013272 312.0209  47.9515 15.33987058402956
CAS-4A
1 42761U 17034D   24270.63980839  .00037687  00000-0  11148-2 0  9994
2 42761  43.0209   9.3035 0013079 323.0507  36.9446 15.34185861402965
D-SAT
1 42794U 17036AF  24270.40933950  .00012780  00000-0  83943-3 0  9999
2 42794  97.4898 248.7401 0106926 162.4940 198.0017 15.03087642395941
TechnoSat
1 42829U 17042E   24270.76879930  .00008682  00000-0  73834-3 0  9995
2 42829  97.3879  86.2601 0013635  92.8937 267.3847 14.97987041392370
AO-91
1 43017U 17073E   24270.61404518  .00018866  00000-0  11068-2 0  9994
2 43017  97.5605 142.6087 0200078 314.3733  44.1248 14.96438631370815
TianYi 6
1 43158U 18008D   24270.87345720  .00405004  00000-0  23352-2 0  9999
2 43158  97.2463 321.3201 0002915 137.5382 222.6111 15.77561438370307
S-Net D
1 43186U 18014G   24270.28755738  .00013457  00000-0  91436-3 0  9992
2 43186  97.5769 170.4010 0011265  32.3699 327.8217 15.06435987363715
S-Net B
1 43187U 18014H   24270.68892972  .00011973  00000-0  81405-3 0  9995
2 43187  97.5773 170.7532 0011850  26.3990 333.7839 15.06434073363777
S-Net A
1 43188U 18014J   24270.68715412  .00012157  00000-0  82621-3 0  9995
2 43188  97.5778 170.8727 0011739  26.8804 333.3029 15.06446221363770
S-Net C
1 43189U 18014K   24270.29244642  .00012874  00000-0  87473-3 0  9991
2 43189  97.5792 170.4527 0013193  20.6945 339.4813 15.06427240362266
Ten-Koh
1 43677U 18084G   24270.43485674  .00008153  00000-0  70672-3 0  9996
2 43677  98.0750  67.1007 0013745  44.1544 316.0771 14.97298357321861
PO-101
1 43678U 18084H   24270.83262339  .00003933  00000-0  35521-3 0  9997
2 43678  98.0837  71.9236 0009694  57.8018 302.4141 14.96068060322114
QO-100
1 43700U 18090A   24270.67861073  .00000128  00000-0  00000+0 0  9995
2 43700   0.0165 150.1414 0001206  64.5843  61.3376  1.00274454 21616
MinXSS-2
1 43758U 18099A   24270.18122357  .00026074  00000-0  14821-2 0  9995
2 43758  97.5432 331.1668 0014218 334.3986  25.6539 15.12780616318031
AO-95
1 43770U 18099N   24270.09773034  .00019027  00000-0  12159-2 0  9995
2 43770  97.5350 325.9024 0013038  25.2239 334.9624 15.08606262317766
RANGE-B
1 43772U 18099Q   24270.72509969  .00027838  00000-0  15193-2 0  9991
2 43772  97.5135 330.4449 0004077 270.7446  89.3318 15.14300163318064
RANGE-A
1 43773U 18099R   24269.89086854  .00012254  00000-0  88540-3 0  9994
2 43773  97.4909 319.9352 0012172 356.5045   3.6094 15.04145979317566
MOVE-II
1 43780U 18099Y   24269.75813492  .00050491  00000-0  21285-2 0  9990
2 43780  97.5094 332.2011 0004235 353.9626   6.1559 15.23136374318191
SNUSat 2
1 43782U 18099AA  24270.11179412  .00015170  00000-0  10040-2 0  9993
2 43782  97.5025 324.5025 0012863 321.1799  38.8504 15.07364704317766
SnugLite
1 43784U 18099AC  24270.11035959  .00018759  00000-0  11928-2 0  9994
2 43784  97.4843 323.7973 0003192 339.8939  20.2163 15.08856801317845
ITASat 1
1 43786U 18099AE  24270.83555807  .00014503  00000-0  98132-3 0  9990
2 43786  97.5000 325.3092 0016306  10.8898 349.2679 15.06514796317864
